Regional Weather Roundup
Issued by NWS

Home | Current Version | Previous Version | Graphics & Text | Print | Product List | Glossary On
Versions: 1 2 3 4 5 6 7 8 9 10 11 12 13 14 15 16 17 18 19 20 21 22 23 24 25 26 27 28 29 30 31 32 33 34 35 36 37 38 39 40 41 42 43 44 45 46 47 48 49 50
146
ASUS45 KBOI 192010
RWRID

IDAHO REGIONAL WEATHER ROUNDUP
NATIONAL WEATHER SERVICE BOISE ID
100 PM MST THU JAN 19 2017

NOTE: "FAIR" INDICATES FEW OR NO CLOUDS BELOW 12000 FEET
WITH NO SIGNIFICANT WEATHER AND/OR OBSTRUCTIONS TO VISIBILITY

IDZ012-014-192100-
SOUTHWEST IDAHO


CITY           SKY/WX    TMP DP  RH WIND       PRES   REMARKS
BOISE          CLOUDY    37  32  82 VRB7      29.67S WCI  32
CALDWELL       CLOUDY    37  32  82 S6        29.69F WCI  32
MOUNTAIN HOME  PTSUNNY   35  35 100 E17       29.67F WCI  24
$$

IDZ016-017-192100-
SOUTHCENTRAL IDAHO


CITY           SKY/WX    TMP DP  RH WIND       PRES   REMARKS
BURLEY         CLOUDY    37  29  72 SW14      29.66F WCI  28
JEROME         CLOUDY    36  31  82 E7        29.68F WCI  30
TWIN FALLS     CLOUDY    36  32  85 E3        29.67F
$$

IDZ019>023-192100-
SOUTHEAST IDAHO


CITY           SKY/WX    TMP DP  RH WIND       PRES   REMARKS
IDAHO FALLS    CLOUDY    32  29  88 S7        29.69F FOG     WCI  26
POCATELLO      CLOUDY    37  31  78 S6        29.68F WCI  32
REXBURG        CLOUDY    30  29  96 CALM      29.68F FOG
$$

IDZ006-010-011-018-031-032-192100-
CENTRAL IDAHO MOUNTAINS


CITY           SKY/WX    TMP DP  RH WIND       PRES   REMARKS
MCCALL         LGT SNOW  32  29  88 SW8       29.58S FOG     WCI  25
HAILEY         LGT SNOW  30  28  93 SE6       29.67F WCI  24
STANLEY          N/A     33  28  81 SE7       29.58F WCI  27
SALMON         CLOUDY    28  23  80 SE3       29.62F
CHALLIS        CLOUDY    23  22  96 CALM      29.61F
$$

IDZ002-004-006-007-026-192100-
NORTHERN IDAHO


CITY           SKY/WX    TMP DP  RH WIND       PRES   REMARKS
LEWISTON       CLOUDY    42  36  79 CALM      29.62F
LOWELL           N/A     34  32  92 CALM      29.67S
COEUR D`ALENE  CLOUDY    38  35  89 S8        29.58F WCI  32
MULLAN PASS    SNOW      30  27  88 VRB3      29.51F VSB 1/2
$$




USA.gov is the U.S. government's official web portal to all federal, state and local government web resources and services.